Location: Puketoi
(40.5833°S, 176.0167°E)
Time: 22:43:54
(UTC+00:00)

CZ-6A DEB - Visible Passes

Search period start: 21 February 2024 00:00
Search period end: 02 March 2024 00:00
Orbit: 820 x 906 km, 98.8° (Epoch: 21 February)

Date Brightness Start Highest point End Pass type
(mag) Time Alt. Az. Time Alt. Az. Time Alt. Az.
21 Feb ? 16:41:47 10° NE 16:46:50 43° ESE 16:51:55 10° S visible
22 Feb ? 16:33:51 10° NE 16:38:43 36° ESE 16:43:38 10° S visible
23 Feb ? 16:25:57 10° NE 16:30:37 31° ESE 16:35:20 10° S visible
24 Feb ? 08:14:08 10° SW 08:15:21 11° WSW 08:16:33 10° WSW visible
24 Feb ? 16:18:07 10° ENE 16:22:32 27° ESE 16:26:59 10° S visible
25 Feb ? 08:04:58 10° SSW 08:07:20 13° WSW 08:09:40 10° W visible
25 Feb ? 16:10:19 10° ENE 16:14:26 23° ESE 16:18:36 10° SSE visible
26 Feb ? 07:56:14 10° SSW 07:59:16 15° WSW 08:02:20 10° W visible
26 Feb ? 16:02:35 10° ENE 16:06:21 20° ESE 16:10:10 10° SSE visible
27 Feb ? 07:47:38 10° SSW 07:51:13 18° WSW 07:54:49 10° W visible
27 Feb ? 15:54:56 10° E 15:58:17 17° ESE 16:01:39 10° SSE visible
28 Feb ? 07:39:08 10° SSW 07:43:09 20° WSW 07:47:12 10° WNW visible
28 Feb ? 15:47:24 10° E 15:50:13 15° ESE 15:53:03 10° SSE visible
28 Feb ? 17:25:05 10° N 17:30:27 79° WNW 17:35:55 10° SSW visible
29 Feb ? 07:30:41 10° SSW 07:35:03 24° WSW 07:39:29 10° WNW visible
29 Feb ? 15:40:03 10° E 15:42:09 12° ESE 15:44:16 10° SE visible
29 Feb ? 17:16:53 10° NNE 17:22:15 88° ESE 17:27:44 10° SSW visible
01 Mar ? 07:22:16 10° S 07:26:58 27° WSW 07:31:41 10° WNW visible
01 Mar ? 15:33:17 10° ESE 15:34:06 10° SE 15:34:55 10° SE visible
01 Mar ? 17:08:43 10° NNE 17:14:03 75° ESE 17:19:31 10° S visible
